FW1683 Weather Reports


Display with metric or nautical units.
time (UTC)temp
F
wind
direction
speed
MPH
gust
MPH
rain 1hr
in
rain 24hr
in
rain mn
in
humidity
%
barometer
mb
20260508035008 54 306 8.0 12.0 0.00 0.00 0.00 86 1011.2
20260508034008 54 302 6.0 9.0 0.00 0.00 0.00 86 1011.2
20260508033016 55 296 4.0 7.0 0.00 0.00 0.00 86 1011.4
20260508032008 55 303 5.0 8.0 0.00 0.00 0.00 86 1011.6
20260508031009 55 279 4.0 7.0 0.00 0.00 0.00 86 1011.7
20260508030011 55 291 3.0 5.0 0.00 0.00 0.00 86 1011.7
20260508025008 55 321 4.0 6.0 0.00 0.00 0.00 86 1011.7
20260508024008 55 289 4.0 7.0 0.00 0.00 0.00 86 1011.8
20260508023009 55 293 5.0 9.0 0.00 0.00 0.00 86 1012.0
20260508022027 55 306 4.0 7.0 0.00 0.00 0.00 86 1011.8
20260508021008 55 314 6.0 9.0 0.00 0.00 0.00 86 1011.7
20260508020010 55 306 6.0 10.0 0.00 0.00 0.00 86 1011.8
20260508015008 56 294 5.0 8.0 0.00 0.00 0.00 86 1012.1
20260508013011 56 292 4.0 7.0 0.00 0.00 0.00 87 1012.1
20260508012007 56 285 4.0 7.0 0.00 0.00 0.00 87 1012.3
20260508011008 56 299 6.0 9.0 0.00 0.00 0.00 87 1012.4
20260508010023 56 297 5.0 9.0 0.00 0.00 0.00 87 1012.4
20260508005007 56 303 6.0 9.0 0.00 0.00 0.00 87 1012.4
20260508004009 56 308 7.0 11.0 0.00 0.00 0.00 87 1012.4
20260508001008 56 297 5.0 8.0 0.00 0.00 0.00 89 1012.8
20260508000010 56 285 5.0 9.0 0.00 0.00 0.00 90 1012.7
20260507235009 57 296 5.0 9.0 0.00 0.00 0.00 90 1012.8
20260507232010 57 306 8.0 11.0 0.00 0.00 0.00 89 1012.9
20260507231008 57 309 6.0 10.0 0.00 0.00 0.00 88 1013.0
20260507222009 57 308 6.0 9.0 0.00 0.00 0.00 88 1013.1
20260507220024 58 311 4.0 8.0 0.00 0.00 0.14 87 1013.2
20260507214009 58 303 6.0 10.0 0.00 0.00 0.14 87 1013.0
20260507213011 58 303 7.0 11.0 0.00 0.00 0.14 88 1013.0
20260507212008 58 287 5.0 8.0 0.00 0.00 0.14 88 1012.9
20260507210028 59 284 4.0 6.0 0.01 0.00 0.14 87 1012.6
20260507205012 59 277 4.0 6.0 0.01 0.00 0.14 87 1012.4
20260507204020 60 303 3.0 5.0 0.01 0.00 0.14 86 1012.3
20260507203012 60 340 2.0 4.0 0.01 0.00 0.14 85 1012.2
20260507202007 60 40 0.0 2.0 0.01 0.00 0.14 84 1012.1
20260507200013 60 237 1.0 2.0 0.02 0.00 0.14 84 1012.0
20260507195007 60 235 1.0 3.0 0.02 0.00 0.13 84 1012.0
20260507194009 60 41 1.0 2.0 0.05 0.00 0.13 82 1011.9
20260507193007 60 348 3.0 4.0 0.06 0.00 0.13 81 1011.9
20260507192007 60 347 2.0 5.0 0.08 0.00 0.13 82 1011.9
20260507191009 60 342 4.0 7.0 0.09 0.00 0.13 83 1011.9
20260507190023 60 357 4.0 8.0 0.11 0.00 0.12 83 1012.1
20260507185006 60 335 6.0 9.0 0.12 0.00 0.12 82 1012.1
20260507184008 60 325 5.0 8.0 0.09 0.00 0.09 82 1012.1
20260507183018 60 8 5.0 9.0 0.07 0.00 0.07 80 1012.1
20260507182008 61 339 4.0 7.0 0.06 0.00 0.06 79 1012.0
20260507181022 61 335 7.0 13.0 0.04 0.00 0.04 77 1011.9
20260507180011 63 333 5.0 10.0 0.01 0.00 0.01 76 1012.0
20260507175007 63 322 7.0 12.0 0.00 0.00 0.00 73 1011.9
20260507173012 65 349 8.0 14.0 0.00 0.00 0.00 57 1011.5
20260507172008 67 9 7.0 13.0 0.00 0.00 0.00 58 1011.3
20260507170024 68 53 8.0 13.0 0.00 0.00 0.00 62 1011.1
20260507165007 69 46 6.0 10.0 0.00 0.00 0.00 63 1011.0
20260507164008 69 53 4.0 7.0 0.00 0.00 0.00 61 1010.9
20260507163013 68 67 5.0 8.0 0.00 0.00 0.00 62 1010.8
20260507162009 68 78 5.0 9.0 0.00 0.00 0.00 63 1010.6
20260507161008 68 69 6.0 10.0 0.00 0.00 0.00 63 1010.4
20260507160031 68 53 6.0 10.0 0.00 0.00 0.00 62 1010.4
20260507155008 68 73 6.0 8.0 0.00 0.00 0.00 60 1010.4
20260507154010 67 66 8.0 12.0 0.00 0.00 0.00 58 1010.4
20260507153027 68 82 9.0 14.0 0.00 0.00 0.00 64 1010.4
20260507152008 67 94 8.0 13.0 0.00 0.00 0.00 65 1010.4
20260507151007 69 66 7.0 12.0 0.00 0.00 0.00 65 1010.4
20260507150022 69 50 11.0 17.0 0.00 0.00 0.00 66 1010.4
20260507145010 68 60 10.0 15.0 0.00 0.00 0.00 63 1010.4
20260507144010 69 56 10.0 16.0 0.00 0.00 0.00 65 1010.5
20260507143017 69 65 7.0 12.0 0.00 0.00 0.00 64 1010.6
20260507142009 69 63 10.0 16.0 0.00 0.00 0.00 62 1010.8
20260507141009 69 57 10.0 15.0 0.00 0.00 0.00 60 1010.9
20260507140010 70 69 7.0 12.0 0.00 0.00 0.00 60 1010.8
20260507134011 71 48 12.0 19.0 0.00 0.00 0.00 58 1010.9
20260507133008 72 57 9.0 15.0 0.00 0.00 0.00 55 1011.0
20260507132008 73 50 9.0 14.0 0.00 0.00 0.00 51 1011.1
20260507131009 72 56 11.0 17.0 0.00 0.00 0.00 52 1011.1
20260507130033 72 69 10.0 16.0 0.00 0.00 0.00 55 1011.2
20260507125011 70 63 10.0 15.0 0.00 0.00 0.00 58 1011.2
20260507123009 69 61 7.0 13.0 0.00 0.00 0.00 63 1011.5
20260507120015 66 46 8.0 14.0 0.00 0.00 0.00 73 1011.8
20260507114008 66 51 9.0 14.0 0.00 0.00 0.00 73 1012.1
20260507113008 66 44 11.0 17.0 0.00 0.00 0.00 69 1012.0
20260507112008 67 56 12.0 19.0 0.00 0.00 0.00 71 1012.2
20260507111009 68 61 9.0 15.0 0.00 0.00 0.00 68 1012.3
20260507105008 68 77 9.0 15.0 0.00 0.00 0.00 57 1012.5
20260507104011 68 60 12.0 18.0 0.00 0.00 0.00 60 1012.4
20260507103008 68 54 13.0 20.0 0.00 0.00 0.00 66 1012.3
20260507102008 69 51 16.0 23.0 0.00 0.00 0.00 62 1012.3
20260507100010 73 59 11.0 18.0 0.00 0.00 0.00 52 1012.3
20260507095008 73 52 10.0 15.0 0.00 0.00 0.00 54 1012.3
20260507094009 72 77 11.0 19.0 0.00 0.00 0.00 54 1012.3
20260507092008 71 54 11.0 17.0 0.00 0.00 0.00 55 1012.3
20260507091008 71 47 8.0 12.0 0.00 0.00 0.00 55 1012.3
20260507090022 71 37 8.0 13.0 0.00 0.00 0.00 57 1012.2
20260507085008 71 35 9.0 15.0 0.00 0.00 0.00 56 1012.3
20260507084009 72 23 7.0 14.0 0.00 0.00 0.00 57 1012.3
20260507075011 67 43 5.0 8.0 0.00 0.00 0.00 57 1012.4
20260507074008 67 40 6.0 9.0 0.00 0.00 0.00 57 1012.5
20260507073009 68 39 5.0 10.0 0.00 0.00 0.00 56 1012.4
20260507072008 67 24 5.0 8.0 0.00 0.00 0.00 54 1012.4
20260507071009 66 39 5.0 9.0 0.00 0.00 0.00 53 1012.2
20260507070013 66 36 3.0 5.0 0.00 0.00 0.00 54 1012.1
20260507065009 64 325 2.0 4.0 0.00 0.00 0.00 56 1012.1
20260507063009 63 338 3.0 5.0 0.00 0.00 0.00 61 1011.9
20260507062010 62 355 3.0 5.0 0.00 0.00 0.00 65 1011.9
20260507061008 60 339 3.0 6.0 0.00 0.00 0.00 69 1011.8
20260507060011 58 311 3.0 6.0 0.00 0.00 0.00 72 1011.6
20260507053022 56 113 1.0 3.0 0.00 0.00 0.00 77 1011.7
20260507051008 56 255 2.0 4.0 0.00 0.00 0.00 76 1011.6
20260507050011 56 302 6.0 9.0 0.00 0.00 0.00 76 1011.4
20260507045008 56 312 5.0 9.0 0.00 0.00 0.00 76 1011.2
20260507044008 56 308 6.0 10.0 0.00 0.00 0.00 76 1011.0
20260507043021 56 309 6.0 9.0 0.00 0.00 0.00 76 1011.0
20260507042022 56 306 7.0 10.0 0.00 0.00 0.00 76 1010.9
20260507041009 57 307 5.0 9.0 0.00 0.00 0.00 75 1011.0